Regional Weather Roundup
Issued by NWS

Home | Current Version | Previous Version | Graphics & Text | Print | Product List | Glossary On
Versions: 1 2 3 4 5 6 7 8 9 10 11 12 13 14 15 16 17 18 19 20 21 22 23 24 25 26 27 28 29 30 31 32 33 34 35 36 37 38 39 40 41 42 43 44 45 46 47 48 49 50
000
ASUS45 KSLC 040110
RWRUT

UTAH REGIONAL WEATHER ROUNDUP
NATIONAL WEATHER SERVICE SALT LAKE CITY UT
600 PM MST TUE MAR 03 2015

UTZ001>011-023>025-040200-

NORTHERN UTAH

CITY           SKY/WX    TMP DP  RH WIND       PRES   REMARKS
BRIGHAM CITY   PTCLDY    36  18  47 NW5       29.93R WCI  32
HILL AFB       PTCLDY    32  19  57 N3        29.91R
LOGAN          MOCLDY    33  17  51 CALM      29.92R
OGDEN          MOCLDY    33  21  61 CALM      29.92R
PROVO AIRPORT  PTCLDY    34  23  64 NW17      29.91R WCI  23
SALT LAKE CITY MOCLDY    36  23  59 NW7       29.92R WCI  30
VERNAL         MOCLDY    31  26  82 SW6       29.77R WCI  25
WENDOVER       PTCLDY    39  10  30 NW17      29.95R WCI  30
HEBER CITY     MOCLDY    30  14  51 N7        29.85R WCI  23
WEST JORDAN    CLOUDY    34  21  60 NW8       29.93R WCI  27

$$

UTZ012>022-026-027-040200-

SOUTHERN/CENTRAL UTAH

CITY           SKY/WX    TMP DP  RH WIND       PRES   REMARKS
BLANDING       PTCLDY    35  29  79 S8        29.87S WCI  28
BRYCE CANYON   MOCLDY    24  18  77 NW15      29.81R WCI  11
CEDAR CITY     LGT SNOW  30  25  81 N13       29.87R WCI  20
DELTA          PTCLDY    34  20  57 NW12      29.93R WCI  25
HANKSVILLE     CLOUDY    41  32  70 CALM      29.81S
MILFORD        CLOUDY    30  23  75 N16       29.91R WCI  19
MOAB/CYNLANDS  PTCLDY    34  33  96 S6        29.78S WCI  29
PRICE          PTCLDY    31  15  52 NW12      29.80R WCI  22
ST GEORGE      MOCLDY    43  36  75 S13       29.89S
KANAB          MOCLDY    36  32  87 S6        29.90R WCI  31

$$

REGIONAL REPORTS     COLORADO/ARIZONA

CITY           SKY/WX    TMP DP  RH WIND       PRES   REMARKS
CRAIG, CO        N/A     25  17  72 CALM      29.77R
GRAND JUNCTION MOCLDY    39  26  59 SW6       29.76R WCI  35
RIFLE          MOCLDY    36  28  73 N3        29.73S
MONTROSE       PTCLDY    38  24  57 S10       29.78R WCI  31
CORTEZ         FLURRIES  36  29  75 N6        29.82R WCI  31
PAGE, AZ       CLOUDY    44  26  49 W8G18     29.82R
GRAND CANYON   MOCLDY    32  28  85 VRB3      29.86R
KINGMAN        LGT RAIN  47  35  63 SW15G22   29.87R
FLAGSTAFF      NOT AVBL

$$

REGIONAL REPORTS    NEVADA/IDAHO/WYOMING

CITY           SKY/WX    TMP DP  RH WIND       PRES   REMARKS
LAS VEGAS, NV  MOCLDY    57  33  40 SW5       29.82R
ELY            MOCLDY    26  17  68 N7        29.94R WCI  18
ELKO           CLEAR     35  13  40 W9        29.97S WCI  28
POCATELLO, ID  CLEAR     27  11  51 W3        29.95S
BURLEY         LGT RAIN  37  14  38 W17G28    29.92R WCI  27
EVANSTON, WY   PTCLDY    20  13  74 W14       29.82R WCI   7
ROCK SPRINGS   CLEAR      9   5  84 NE8       29.76R WCI  -3

$$


USA.gov is the U.S. government's official web portal to all federal, state and local government web resources and services.